Regional Weather Roundup
Issued by NWS State College, PA

Home | Current Version | Previous Version | Graphics & Text | Print | Product List | Glossary Off
Versions: 1 2 3 4 5 6 7 8 9 10 11 12 13 14 15 16 17 18 19 20 21 22 23 24 25 26 27 28 29 30 31 32 33 34 35 36 37 38 39 40 41 42 43 44 45 46 47 48 49 50

000
ASUS41 KCTP 270210
RWRCTP

REGIONAL WEATHER ROUNDUP
NATIONAL WEATHER SERVICE STATE COLLEGE PA
1000 PM EDT WED APR 26 2017

Note: "fair" indicates few or no clouds below 12,000 feet with no
significant weather and/or obstructions to visibility.

* = STATION THAT DOES NOT REPORT PRECIPITATION /E.G. RAIN...SNOW...ETC/
    THUNDER OR FOG.

PAZ002>004-007>009-013>016-020>023-029>032-270300-
WESTERN PENNSYLVANIA

CITY           SKY/WX    TMP DP  RH WIND       PRES   REMARKS
ERIE           CLEAR     69  56  62 S7        29.66R
MEADVILLE      CLEAR     68  55  63 VRB5      29.70R
FRANKLIN*      CLEAR     66  54  63 SE8       29.73S
NEW CASTLE     FAIR      70  57  63 SE3       29.70R
BEAVER COUNTY  NOT AVBL
BUTLER*        CLEAR     66  54  63 SE5       29.72S
PITTSBURGH INT PTCLDY    70  57  63 SE6       29.70R
PITTSBURGH     CLEAR     70  54  56 SE6       29.70S
INDIANA*       CLEAR     64  57  77 SE5       29.78R
LATROBE          N/A     68  57  68 CALM      29.73S
WASHINGTON CO* CLEAR     61  55  82 CALM      29.72S
$$

PAZ004>006-010>012-017>019-024>028-033>037-041-042-045-046-049>053-270300-
CENTRAL PENNSYLVANIA

CITY           SKY/WX    TMP DP  RH WIND       PRES   REMARKS
BRADFORD       CLEAR     65  54  67 SE7       29.76S
DUBOIS         PTCLDY    65  53  65 SE8       29.75R
CLEARFIELD     PTCLDY    66  56  70 SE5       29.78R
JOHNSTOWN      CLEAR     63  56  78 SE9       29.79R
ALTOONA        CLEAR     64  57  78 S5        29.80R
STATE COLLEGE  NOT AVBL
WILLIAMSPORT   CLEAR     68  57  68 CALM      29.76R
SELINSGROVE    CLEAR     59  56  89 CALM      29.80R
FT INDIANTOWN  CLEAR     57  57 100 CALM      29.82R
CAPITAL CITY   CLEAR     61  55  81 CALM      29.81R
HARRISBURG     PTCLDY    59  57  93 SE3       29.81R
YORK           CLEAR     61  58  90 CALM      29.82R
$$

PAZ038>040-043-044-047-048-054-055-060>062-067>071-270300-
EASTERN PENNSYLVANIA

CITY           SKY/WX    TMP DP  RH WIND       PRES   REMARKS
SCRANTON       CLEAR     65  56  72 E3        29.80R
MOUNT POCONO   PTCLDY    53  53 100 SE5       29.84R
ALLENTOWN      CLOUDY    64  55  72 E6        29.82R
QUAKERTOWN*    CLOUDY    59  57  94 CALM      29.84R
READING        PTCLDY    63  59  87 S3        29.81R
LANCASTER      MOCLDY    58  58 100 CALM      29.83R
COATESVILLE    CLOUDY    61  59  94 CALM      29.85R
POTTSTOWN      CLOUDY    59  56  89 CALM      29.84R
BLUE BELL      CLOUDY    61  55  82 SE5       29.85R
DOYLESTOWN     CLOUDY    60  58  92 CALM      29.83R
WILLOW GROVE   NOT AVBL
NORTH PHILA    CLOUDY    63  58  83 SE3       29.85R
PHILADELPHIA   CLOUDY    62  56  80 CALM      29.84R
$$



USA.gov is the U.S. government's official web portal to all federal, state and local government web resources and services.